Regional Weather Roundup
Issued by NWS

Home | Current Version | Previous Version | Text Only | Print | Product List | Glossary Off
Versions: 1 2 3 4 5 6 7 8 9 10 11 12 13 14 15 16 17 18 19 20 21 22 23 24 25 26 27 28 29 30 31 32 33 34 35 36 37 38 39 40 41 42 43 44 45 46 47 48 49 50

000
ASUS43 KLOT 192358
RWRIL

ILLINOIS REGIONAL WEATHER ROUNDUP
NATIONAL WEATHER SERVICE CHICAGO/ROMEOVILLE IL
700 PM CDT FRI SEP 19 2014

NOTE: "FAIR" INDICATES FEW OR NO CLOUDS BELOW 12,000 FEET WITH NO
SIGNIFICANT WEATHER AND/OR OBSTRUCTIONS TO VISIBILITY.

* THESE STATIONS ARE NOT UNDER NWS QUALITY CONTROL. THEY ALSO MAY NOT
  REPORT WEATHER SUCH AS PRECIPITATION OR FOG.

ILZ001-002-007-009-015-016-024-200100-
NORTHWEST ILLINOIS

CITY           SKY/WX    TMP DP  RH WIND       PRES   REMARKS
MOLINE         CLEAR     71  54  54 S7        29.94F
6HR MIN TEMP:  71; 6HR MAX TEMP:  76;

$$

ILZ003-004-008-010-011-017-018-200100-
NORTH CENTRAL ILLINOIS

CITY           SKY/WX    TMP DP  RH WIND       PRES   REMARKS
ROCKFORD       NOT AVBL
$$

ILZ005-006-012>014-019>023-200100-
NORTHEAST ILLINOIS

CITY           SKY/WX    TMP DP  RH WIND       PRES   REMARKS
CHICAGO-OHARE  MOCLDY    72  44  36 S9        29.98F
6HR MIN TEMP:  72; 6HR MAX TEMP:  78;

CHICAGO-MIDWAY MOCLDY    73  45  36 S10       30.00S
6HR MIN TEMP:  73; 6HR MAX TEMP:  76;

AURORA         PTCLDY    67  47  48 S6        29.99F
6HR MIN TEMP:  67; 6HR MAX TEMP:  76;

WAUKEGAN       PTCLDY    67  46  47 S9        29.97F
6HR MIN TEMP:  67; 6HR MAX TEMP:  72;

DUPAGE AIRPORT CLEAR     66  47  50 S8        29.99F
6HR MIN TEMP:  66; 6HR MAX TEMP:  75; 6HR PCP: TRACE;

WHEELING       PTCLDY    71  45  39 S12       29.99F
6HR MIN TEMP:  71; 6HR MAX TEMP:  75;

NORTHERLY ISL    N/A     70  43  37 S9          N/A
$$

LMZ740>746-200100-
SOUTHERN LAKE MICHIGAN

STATION/POSITION SKY/WX   TEMP    WIND        PRES    VSBY  WAVE
                          AIR SEA DIR/SP/G                  HT/PER
                          (F)     (DEG/KT/KT) (MB)    (MI)  (FT/S)
SOUTHERN BUOY              67 64  170/ 16/ 17 1015.9F         2/ 4
WAUKEGAN HARBOR            70     190/ 15/ 18   N/A
HARRISON CRIB              69     170/ 20/ 22   N/A
BURNHAM HARBOR             71     170/  8/ 17   N/A
CALUMET HARBOR             72     160/  6/ 11 1015.0F
MICHIGAN CITY              71     150/  8/ 12   N/A
MICHIGAN CITY 6N           68 65  160/  6/  8   N/A           1
ST. JOSEPH                 68 65  150/ 10/ 12   N/A           1/ 3
$$

ILZ025>027-034>036-040-047-049-050-058-095>099-200100-
WEST-CENTRAL ILLINOIS

CITY           SKY/WX    TMP DP  RH WIND       PRES   REMARKS
$$

ILZ028>032-037-038-041>044-048-051>054-059>061-200100-
CENTRAL ILLINOIS

CITY           SKY/WX    TMP DP  RH WIND       PRES   REMARKS
PEORIA         NOT AVBL
SPRINGFIELD    CLEAR     71  54  54 S7        30.01F
6HR MIN TEMP:  71; 6HR MAX TEMP:  78;

TAYLORVILLE    NOT AVBL
$$

ILZ033-039-045-046-055>057-062-063-200100-
EAST-CENTRAL ILLINOIS

CITY           SKY/WX    TMP DP  RH WIND       PRES   REMARKS
MATTOON        CLEAR     68  52  56 CALM      30.03F
$$

ILZ079-100>102-200100-
SOUTHWEST ILLINOIS

CITY           SKY/WX    TMP DP  RH WIND       PRES   REMARKS
$$

ILZ064>066-069>071-074>076-080>082-084>086-088>090-092>094-200100-
SOUTH-CENTRAL ILLINOIS

CITY           SKY/WX    TMP DP  RH WIND       PRES   REMARKS
CARBONDALE     CLEAR     71  60  68 MISG      30.02S
6HR MIN TEMP:  71; 6HR MAX TEMP:  79;

$$

ILZ067-068-072-073-078-083-087-091-200100-
SOUTHEAST ILLINOIS

CITY           SKY/WX    TMP DP  RH WIND       PRES   REMARKS
LAWRENCEVILLE  CLEAR     68  57  68 E5        30.04F
FLORA*         CLEAR     70  57  63 SE3       30.04S
$$

ABBREVIATIONS USED IN REMARKS
   TC - TEMPERATURE IN CELSIUS
  WCI - WIND CHILL INDEX
   HX - HEAT INDEX
  VSB - VISIBILITY
$$




USA.gov is the U.S. government's official web portal to all federal, state and local government web resources and services.